2014-07-18, 07:13:04,VALID,918.147,VALID,0,VALID,97.1528,VALID,77.3576,VALID,18.8658,VALID,125,VALID,0,
2014-07-18, 07:15:04,VALID,918.276,VALID,0,VALID,97.1604,VALID,105.937,VALID,18.9243,VALID,125,VALID,0.245312,
2014-07-18, 07:17:04,VALID,918.295,VALID,0,VALID,97.1909,VALID,37.1746,VALID,18.8268,VALID,125,VALID,0.574609,
2014-07-18, 07:18:04,VALID,918.281,VALID,0,VALID,97.1909,VALID,130.971,VALID,18.8658,VALID,105,VALID,0.581641,
2014-07-18, 07:19:04,VALID,918.28,VALID,0,VALID,97.1528,VALID,89.4985,VALID,18.9828,VALID,81,VALID,0.683594,
2014-07-18, 07:20:04,VALID,918.314,VALID,0,VALID,97.1681,VALID,136.45,VALID,19.0008,VALID,81,VALID,0.525,
2014-07-18, 07:21:04,VALID,918.308,VALID,0,VALID,97.1376,VALID,113.673,VALID,19.1583,VALID,82,VALID,0.306641,
2014-07-18, 07:22:04,VALID,918.331,VALID,0,VALID,97.1452,VALID,141.5,VALID,19.2948,VALID,81,VALID,0.228516,
2014-07-18, 07:23:04,VALID,918.342,VALID,0,VALID,97.1071,VALID,144.293,VALID,19.4118,VALID,82,VALID,0,
2014-07-18, 07:24:04,VALID,918.328,VALID,0,VALID,97.1071,VALID,143.864,VALID,19.5093,VALID,82,VALID,0.274609,
2014-07-18, 07:25:04,VALID,918.31,VALID,0,VALID,97.0994,VALID,151.385,VALID,19.5483,VALID,82,VALID,0.239453,
2014-07-18, 07:26:04,VALID,918.324,VALID,0,VALID,97.0842,VALID,151.492,VALID,19.6458,VALID,81,VALID,0.608594,
2014-07-18, 07:27:04,VALID,918.315,VALID,0,VALID,97.0766,VALID,152.996,VALID,19.7823,VALID,82,VALID,0.663281,
2014-07-18, 07:28:04,VALID,918.328,VALID,0,VALID,97.0537,VALID,158.153,VALID,19.8198,VALID,81,VALID,0.969531,
2014-07-18, 07:29:04,VALID,918.319,VALID,0,VALID,97.0232,VALID,101.962,VALID,19.9188,VALID,81,VALID,0.903906,
2014-07-18, 07:30:04,VALID,918.358,VALID,0,VALID,97.0003,VALID,169.435,VALID,20.0358,VALID,82,VALID,0.651172,
2014-07-18, 07:31:04,VALID,918.356,VALID,0,VALID,96.947,VALID,60.167,VALID,20.1123,VALID,82,VALID,0.988281,
2014-07-18, 07:32:04,VALID,918.403,VALID,0,VALID,96.8936,VALID,145.26,VALID,20.1919,VALID,41,VALID,1.09883,
2014-07-18, 07:33:04,VALID,918.416,VALID,0,VALID,96.825,VALID,81.1181,VALID,20.2309,VALID,38,VALID,0.986719,
2014-07-18, 07:34:04,VALID,918.408,VALID,0,VALID,96.7183,VALID,169.435,VALID,20.1919,VALID,7,VALID,1.55156,
2014-07-18, 07:35:04,VALID,918.438,VALID,0,VALID,96.5734,VALID,195.221,VALID,20.1513,VALID,5,VALID,0.957031,
2014-07-18, 07:36:04,VALID,918.434,VALID,0,VALID,96.4515,VALID,184.799,VALID,20.2098,VALID,2,VALID,0.817187,
2014-07-18, 07:37:04,VALID,918.423,VALID,0,VALID,96.3295,VALID,77.0353,VALID,20.2684,VALID,7,VALID,1.09648,
2014-07-18, 07:38:04,VALID,918.424,VALID,0,VALID,96.1084,VALID,210.692,VALID,20.2684,VALID,22,VALID,1.54961,
2014-07-18, 07:39:04,VALID,918.433,VALID,0,VALID,95.8416,VALID,85.5232,VALID,20.2278,VALID,3,VALID,1.29648,
2014-07-18, 07:40:04,VALID,918.464,VALID,0,VALID,95.712,VALID,137.74,VALID,20.3074,VALID,15,VALID,1.3375,
2014-07-18, 07:41:04,VALID,918.476,VALID,0,VALID,95.4833,VALID,217.246,VALID,20.2879,VALID,36,VALID,1.46289,
2014-07-18, 07:42:04,VALID,918.482,VALID,0,VALID,95.2775,VALID,82.7297,VALID,20.3269,VALID,13,VALID,1.28008,
2014-07-18, 07:43:04,VALID,918.539,VALID,0,VALID,94.7743,VALID,68.0102,VALID,20.3269,VALID,13,VALID,1.09687,
2014-07-18, 07:44:04,VALID,918.529,VALID,0,VALID,93.9891,VALID,87.8869,VALID,20.3269,VALID,18,VALID,0.993359,
2014-07-18, 07:45:04,VALID,918.555,VALID,0,VALID,93.12,VALID,128.607,VALID,20.3074,VALID,7,VALID,1.00156,
2014-07-18, 07:46:04,VALID,918.579,VALID,0,VALID,92.716,VALID,61.134,VALID,20.2684,VALID,4,VALID,0.674219,
2014-07-18, 07:47:04,VALID,918.589,VALID,0,VALID,92.4797,VALID,80.7957,VALID,20.2489,VALID,26,VALID,0.888281,
2014-07-18, 07:48:04,VALID,918.588,VALID,0,VALID,92.3806,VALID,52.0015,VALID,20.2098,VALID,27,VALID,1.04062,
2014-07-18, 07:49:04,VALID,918.59,VALID,0,VALID,92.4492,VALID,226.164,VALID,20.1303,VALID,27,VALID,0.985156,
2014-07-18, 07:50:04,VALID,918.608,VALID,0,VALID,92.6169,VALID,239.486,VALID,20.1708,VALID,27,VALID,0.753125,
2014-07-18, 07:51:04,VALID,918.586,VALID,0,VALID,92.6931,VALID,240.238,VALID,20.2293,VALID,23,VALID,0.882422,
2014-07-18, 07:52:04,VALID,918.573,VALID,0,VALID,92.8227,VALID,234.437,VALID,20.3253,VALID,26,VALID,1.06562,
2014-07-18, 07:53:04,VALID,918.598,VALID,0,VALID,92.7007,VALID,235.511,VALID,20.4618,VALID,24,VALID,0.794531,
2014-07-18, 07:54:04,VALID,918.625,VALID,0,VALID,92.0299,VALID,252.916,VALID,20.5999,VALID,21,VALID,0.889453,
2014-07-18, 07:55:04,VALID,918.625,VALID,0,VALID,91.1684,VALID,268.066,VALID,20.678,VALID,27,VALID,1.54453,
2014-07-18, 07:56:04,VALID,918.608,VALID,0,VALID,90.4671,VALID,268.818,VALID,20.7154,VALID,8,VALID,0.955859,
2014-07-18, 07:57:04,VALID,918.61,VALID,0,VALID,90.2079,VALID,219.18,VALID,20.7934,VALID,19,VALID,1.47344,
2014-07-18, 07:58:04,VALID,918.632,VALID,0,VALID,90.4976,VALID,141.607,VALID,20.891,VALID,19,VALID,0.904688,
2014-07-18, 07:59:04,VALID,918.681,VALID,0,VALID,89.9716,VALID,296.967,VALID,20.9885,VALID,19,VALID,1.32578,
2014-07-18, 08:00:04,VALID,918.694,VALID,0,VALID,89.2931,VALID,270.429,VALID,21.047,VALID,351,VALID,1.32656,
2014-07-18, 08:01:04,VALID,918.706,VALID,0,VALID,89.0034,VALID,203.171,VALID,21.1055,VALID,31,VALID,1.30781,
2014-07-18, 08:02:04,VALID,918.711,VALID,0,VALID,88.7594,VALID,249.478,VALID,21.125,VALID,39,VALID,1.34492,
2014-07-18, 08:03:04,VALID,918.724,VALID,0,VALID,89.5065,VALID,206.394,VALID,21.125,VALID,28,VALID,1.18516,
2014-07-18, 08:04:04,VALID,918.737,VALID,0,VALID,89.5218,VALID,96.0524,VALID,21.1055,VALID,23,VALID,1.25,
2014-07-18, 08:05:04,VALID,918.725,VALID,0,VALID,89.194,VALID,78.3246,VALID,21.0665,VALID,34,VALID,1.33203,
2014-07-18, 08:06:04,VALID,918.715,VALID,0,VALID,88.9653,VALID,303.951,VALID,20.9885,VALID,17,VALID,1.05078,
2014-07-18, 08:07:04,VALID,918.719,VALID,0,VALID,89.3236,VALID,288.694,VALID,20.9885,VALID,29,VALID,0.990625,
2014-07-18, 08:08:04,VALID,918.699,VALID,0,VALID,89.3464,VALID,178.675,VALID,21.0259,VALID,355,VALID,0.683984,
2014-07-18, 08:09:04,VALID,918.704,VALID,0,VALID,89.2397,VALID,294.389,VALID,21.1039,VALID,27,VALID,1.2293,
2014-07-18, 08:10:04,VALID,918.731,VALID,0,VALID,88.5155,VALID,99.3831,VALID,21.1836,VALID,9,VALID,1.17461,
2014-07-18, 08:11:04,VALID,918.729,VALID,0,VALID,88.828,VALID,105.185,VALID,21.2031,VALID,16,VALID,1.24922,
2014-07-18, 08:12:04,VALID,918.733,VALID,0,VALID,88.4697,VALID,108.73,VALID,21.1055,VALID,14,VALID,1.24688,
2014-07-18, 08:13:04,VALID,918.711,VALID,0,VALID,88.6603,VALID,140.64,VALID,20.9869,VALID,24,VALID,1.42773,
2014-07-18, 08:14:04,VALID,918.65,VALID,0,VALID,89.3693,VALID,341.233,VALID,20.9284,VALID,41,VALID,1.06055,
2014-07-18, 08:15:04,VALID,918.655,VALID,0,VALID,89.6819,VALID,308.678,VALID,20.9901,VALID,30,VALID,1.27773,
2014-07-18, 08:16:04,VALID,918.642,VALID,0,VALID,89.5523,VALID,78.3246,VALID,21.047,VALID,8,VALID,1.68398,
2014-07-18, 08:17:04,VALID,918.642,VALID,0,VALID,87.9513,VALID,64.0349,VALID,21.0275,VALID,332,VALID,1.19727,
2014-07-18, 08:18:04,VALID,918.631,VALID,0,VALID,88.5612,VALID,51.5718,VALID,20.9885,VALID,32,VALID,1.47539,
2014-07-18, 08:19:04,VALID,918.662,VALID,0,VALID,89.194,VALID,124.847,VALID,20.9495,VALID,360,VALID,0.671484,
2014-07-18, 08:20:04,VALID,918.676,VALID,0,VALID,89.598,VALID,112.598,VALID,20.969,VALID,341,VALID,1.27422,
2014-07-18, 08:21:04,VALID,918.667,VALID,0,VALID,89.1635,VALID,385.606,VALID,21.0096,VALID,4,VALID,1.34102,
2014-07-18, 08:22:04,VALID,918.673,VALID,0,VALID,89.7352,VALID,378.408,VALID,21.086,VALID,2,VALID,0.864453,
2014-07-18, 08:23:04,VALID,918.675,VALID,0,VALID,89.3998,VALID,413.111,VALID,21.2421,VALID,5,VALID,0.746094,
2014-07-18, 08:24:04,VALID,918.616,VALID,0,VALID,89.0263,VALID,444.269,VALID,21.4372,VALID,13,VALID,1.37344,
2014-07-18, 08:25:04,VALID,918.656,VALID,0,VALID,88.241,VALID,477.146,VALID,21.6128,VALID,6,VALID,1.12773,
2014-07-18, 08:26:04,VALID,918.663,VALID,0,VALID,87.128,VALID,475.212,VALID,21.7493,VALID,13,VALID,1.58867,
2014-07-18, 08:27:04,VALID,918.635,VALID,0,VALID,86.3199,VALID,481.229,VALID,21.7883,VALID,12,VALID,1.74219,
2014-07-18, 08:28:04,VALID,918.658,VALID,0,VALID,87.5549,VALID,488.857,VALID,21.9054,VALID,11,VALID,1.88047,
2014-07-18, 08:29:04,VALID,918.717,VALID,0,VALID,86.5182,VALID,442.872,VALID,21.9444,VALID,3,VALID,1.26328,
2014-07-18, 08:30:04,VALID,918.711,VALID,0,VALID,86.48,VALID,476.609,VALID,22.081,VALID,8,VALID,1.53672,
2014-07-18, 08:31:04,VALID,918.699,VALID,0,VALID,85.8244,VALID,479.188,VALID,22.1964,VALID,14,VALID,0.965625,
2014-07-18, 08:32:04,VALID,918.712,VALID,0,VALID,84.5513,VALID,491.866,VALID,22.3933,VALID,12,VALID,0.245703,
2014-07-18, 08:33:04,VALID,918.714,VALID,0,VALID,81.7078,VALID,504.329,VALID,22.5867,VALID,2,VALID,0.477344,
2014-07-18, 08:34:04,VALID,918.688,VALID,0,VALID,80.4957,VALID,484.345,VALID,22.5281,VALID,257,VALID,1.32187,
2014-07-18, 08:35:04,VALID,918.718,VALID,0,VALID,82.2109,VALID,433.847,VALID,22.4501,VALID,275,VALID,0.219531,
2014-07-18, 08:36:04,VALID,918.67,VALID,0,VALID,82.0584,VALID,322.968,VALID,22.5672,VALID,276,VALID,0.271875,
2014-07-18, 08:37:04,VALID,918.725,VALID,0,VALID,81.38,VALID,336.183,VALID,22.7428,VALID,48,VALID,1.08008,
2014-07-18, 08:38:04,VALID,918.706,VALID,0,VALID,82.0813,VALID,434.17,VALID,22.8794,VALID,8,VALID,0.528516,
2014-07-18, 08:39:04,VALID,918.715,VALID,0,VALID,79.5275,VALID,476.824,VALID,22.9575,VALID,4,VALID,1.08945,
2014-07-18, 08:40:04,VALID,918.713,VALID,0,VALID,80.5414,VALID,487.031,VALID,22.9965,VALID,9,VALID,0.573828,
2014-07-18, 08:41:04,VALID,918.723,VALID,0,VALID,79.6952,VALID,249.049,VALID,23.1527,VALID,6,VALID,0.676953,
2014-07-18, 08:42:04,VALID,918.747,VALID,0,VALID,78.7346,VALID,450.178,VALID,23.0941,VALID,321,VALID,0.737891,
2014-07-18, 08:43:04,VALID,918.747,VALID,0,VALID,79.9849,VALID,170.294,VALID,22.9575,VALID,321,VALID,0.430859,
2014-07-18, 08:44:04,VALID,918.737,VALID,0,VALID,80.6481,VALID,422.566,VALID,22.9185,VALID,331,VALID,0.563281,
2014-07-18, 08:45:04,VALID,918.727,VALID,0,VALID,78.4678,VALID,327.051,VALID,22.8777,VALID,319,VALID,0.690625,
2014-07-18, 08:46:04,VALID,918.729,VALID,0,VALID,78.8185,VALID,491.758,VALID,22.7606,VALID,319,VALID,0.904688,
2014-07-18, 08:47:04,VALID,918.749,VALID,0,VALID,80.7853,VALID,250.875,VALID,22.5281,VALID,319,VALID,0.757422,
2014-07-18, 08:48:04,VALID,918.747,VALID,0,VALID,80.9073,VALID,100.135,VALID,22.3933,VALID,318,VALID,1.08711,
2014-07-18, 08:49:04,VALID,918.754,VALID,0,VALID,81.7306,VALID,109.697,VALID,22.3135,VALID,317,VALID,0.793359,
2014-07-18, 08:50:04,VALID,918.757,VALID,0,VALID,81.9517,VALID,130.004,VALID,22.1964,VALID,317,VALID,0.300391,
2014-07-18, 08:51:04,VALID,918.744,VALID,0,VALID,82.3939,VALID,225.949,VALID,22.1379,VALID,317,VALID,0.0386719,
2014-07-18, 08:52:04,VALID,918.734,VALID,0,VALID,82.6531,VALID,92.7217,VALID,22.1574,VALID,317,VALID,0.246484,
2014-07-18, 08:53:04,VALID,918.705,VALID,0,VALID,82.5463,VALID,78.2172,VALID,22.1574,VALID,335,VALID,0.551172,
2014-07-18, 08:54:04,VALID,918.716,VALID,0,VALID,81.7993,VALID,82.7297,VALID,22.1184,VALID,352,VALID,0.692578,
2014-07-18, 08:55:04,VALID,918.705,VALID,0,VALID,81.441,VALID,104.97,VALID,22.1184,VALID,347,VALID,0.283984,
2014-07-18, 08:56:04,VALID,918.688,VALID,0,VALID,81.9975,VALID,143.112,VALID,22.1396,VALID,353,VALID,0.86875,
2014-07-18, 08:57:04,VALID,918.691,VALID,0,VALID,82.8208,VALID,201.56,VALID,22.1591,VALID,351,VALID,0.429297,
2014-07-18, 08:58:04,VALID,918.701,VALID,0,VALID,82.4777,VALID,105.077,VALID,22.1964,VALID,351,VALID,0.577344,
2014-07-18, 08:59:04,VALID,918.663,VALID,0,VALID,82.6912,VALID,95.4077,VALID,22.255,VALID,351,VALID,0.185156,
2014-07-18, 09:00:04,VALID,918.646,VALID,0,VALID,82.6836,VALID,490.791,VALID,22.255,VALID,351,VALID,0.553125,
2014-07-18, 09:01:04,VALID,918.638,VALID,0,VALID,81.0217,VALID,344.564,VALID,22.294,VALID,320,VALID,0.998828,
2014-07-18, 09:02:04,VALID,918.603,VALID,0,VALID,82.3329,VALID,350.366,VALID,22.294,VALID,29,VALID,1.6582,
2014-07-18, 09:03:04,VALID,918.596,VALID,0,VALID,82.0127,VALID,322.861,VALID,22.3916,VALID,41,VALID,0.719141,
2014-07-18, 09:04:04,VALID,918.59,VALID,0,VALID,81.2122,VALID,550.958,VALID,22.5867,VALID,19,VALID,0.173438,
2014-07-18, 09:05:04,VALID,918.574,VALID,0,VALID,80.1907,VALID,571.802,VALID,22.8014,VALID,22,VALID,1.41484,
2014-07-18, 09:06:04,VALID,918.579,VALID,0,VALID,78.666,VALID,331.993,VALID,23.0959,VALID,31,VALID,1.30547,
2014-07-18, 09:07:04,VALID,918.549,VALID,0,VALID,77.675,VALID,134.087,VALID,23.2893,VALID,11,VALID,1.64336,
2014-07-18, 09:08:04,VALID,918.524,VALID,0,VALID,76.6306,VALID,125.491,VALID,23.2893,VALID,347,VALID,1.56016,
2014-07-18, 09:09:04,VALID,918.572,VALID,0,VALID,77.3624,VALID,421.707,VALID,23.1136,VALID,344,VALID,0.938281,
2014-07-18, 09:10:04,VALID,918.583,VALID,0,VALID,77.5225,VALID,392.268,VALID,23.0356,VALID,305,VALID,0.601563,
2014-07-18, 09:11:04,VALID,918.524,VALID,0,VALID,78.2696,VALID,362.292,VALID,23.0143,VALID,9,VALID,1.26523,
2014-07-18, 09:12:04,VALID,918.556,VALID,0,VALID,79.0624,VALID,171.584,VALID,23.1136,VALID,15,VALID,0.704687,
2014-07-18, 09:13:04,VALID,918.521,VALID,0,VALID,78.0485,VALID,186.303,VALID,23.1527,VALID,12,VALID,1.29531,
2014-07-18, 09:14:04,VALID,918.515,VALID,0,VALID,79.4512,VALID,281.496,VALID,23.0746,VALID,20,VALID,1.52578,
2014-07-18, 09:15:04,VALID,918.431,VALID,0,VALID,79.192,VALID,604.786,VALID,23.0551,VALID,29,VALID,1.96875,
2014-07-18, 09:16:04,VALID,918.458,VALID,0,VALID,80.145,VALID,226.916,VALID,23.0746,VALID,6,VALID,1.3457,
2014-07-18, 09:17:04,VALID,918.457,VALID,0,VALID,79.497,VALID,116.789,VALID,23.0551,VALID,22,VALID,1.63437,
2014-07-18, 09:18:04,VALID,918.485,VALID,0,VALID,78.5745,VALID,587.918,VALID,22.9362,VALID,6,VALID,1.55078,
2014-07-18, 09:19:04,VALID,918.459,VALID,0,VALID,80.2593,VALID,589.745,VALID,22.8599,VALID,1,VALID,0.920703,
2014-07-18, 09:20:04,VALID,918.474,VALID,0,VALID,79.2302,VALID,602.852,VALID,22.938,VALID,21,VALID,1.54141,
2014-07-18, 09:21:04,VALID,918.506,VALID,0,VALID,80.1907,VALID,620.15,VALID,23.0941,VALID,10,VALID,1.02461,
2014-07-18, 09:22:04,VALID,918.47,VALID,0,VALID,78.5745,VALID,576.852,VALID,23.3674,VALID,5,VALID,1.60234,
2014-07-18, 09:23:04,VALID,918.458,VALID,0,VALID,76.8745,VALID,270.967,VALID,23.4845,VALID,17,VALID,1.89023,
2014-07-18, 09:24:04,VALID,918.442,VALID,0,VALID,77.2023,VALID,580.397,VALID,23.4241,VALID,9,VALID,1.92734,
2014-07-18, 09:25:04,VALID,918.444,VALID,0,VALID,78.8109,VALID,589.852,VALID,23.4241,VALID,15,VALID,2.02383,
2014-07-18, 09:26:04,VALID,918.462,VALID,0,VALID,79.0472,VALID,690.954,VALID,23.4845,VALID,356,VALID,1.15195,
2014-07-18, 09:27:04,VALID,918.431,VALID,0,VALID,76.3942,VALID,642.498,VALID,23.6016,VALID,24,VALID,1.79297,
2014-07-18, 09:28:04,VALID,918.397,VALID,0,VALID,76.2647,VALID,598.77,VALID,23.5998,VALID,20,VALID,3.22695,
2014-07-18, 09:29:04,VALID,918.413,VALID,0,VALID,77.3777,VALID,635.3,VALID,23.6992,VALID,353,VALID,1.58984,
2014-07-18, 09:30:04,VALID,918.375,VALID,0,VALID,76.257,VALID,156.005,VALID,23.8145,VALID,13,VALID,1.64023,
2014-07-18, 09:31:04,VALID,918.355,VALID,0,VALID,76.4781,VALID,135.591,VALID,23.7382,VALID,22,VALID,1.75742,
2014-07-18, 09:32:04,VALID,918.375,VALID,0,VALID,77.1795,VALID,183.724,VALID,23.5022,VALID,21,VALID,1.56641,
2014-07-18, 09:33:04,VALID,918.379,VALID,0,VALID,77.7283,VALID,648.3,VALID,23.3461,VALID,10,VALID,1.16328,
2014-07-18, 09:34:04,VALID,918.371,VALID,0,VALID,78.0257,VALID,549.132,VALID,23.2893,VALID,357,VALID,1.48398,
2014-07-18, 09:35:04,VALID,918.329,VALID,0,VALID,78.2467,VALID,540.322,VALID,23.268,VALID,353,VALID,2.59414,
2014-07-18, 09:36:04,VALID,918.355,VALID,0,VALID,77.5378,VALID,560.95,VALID,23.229,VALID,32,VALID,2.05469,
2014-07-18, 09:37:04,VALID,918.352,VALID,0,VALID,77.7665,VALID,253.346,VALID,23.2485,VALID,346,VALID,1.64375,
2014-07-18, 09:38:04,VALID,918.347,VALID,0,VALID,75.853,VALID,600.811,VALID,23.1899,VALID,8,VALID,1.1543,
2014-07-18, 09:39:04,VALID,918.337,VALID,0,VALID,77.149,VALID,647.548,VALID,23.1704,VALID,1,VALID,1.49297,
2014-07-18, 09:40:04,VALID,918.338,VALID,0,VALID,76.4934,VALID,636.374,VALID,23.2485,VALID,13,VALID,1.41406,
2014-07-18, 09:41:04,VALID,918.336,VALID,0,VALID,76.0283,VALID,637.556,VALID,23.5022,VALID,25,VALID,1.04336,
2014-07-18, 09:42:04,VALID,918.329,VALID,0,VALID,75.6243,VALID,660.656,VALID,23.7364,VALID,22,VALID,1.86484,
2014-07-18, 09:43:04,VALID,918.344,VALID,0,VALID,75.8225,VALID,665.598,VALID,23.8926,VALID,19,VALID,1.6543,
2014-07-18, 09:44:04,VALID,918.233,VALID,0,VALID,75.4718,VALID,694.822,VALID,24.1659,VALID,29,VALID,1.87461,
2014-07-18, 09:45:04,VALID,918.241,VALID,0,VALID,72.026,VALID,335.324,VALID,24.3221,VALID,4,VALID,1.82109,
2014-07-18, 09:46:04,VALID,918.246,VALID,0,VALID,73.6956,VALID,287.298,VALID,24.283,VALID,354,VALID,1.37695,
2014-07-18, 09:47:04,VALID,918.229,VALID,0,VALID,73.0095,VALID,246.577,VALID,24.244,VALID,13,VALID,1.54883,
2014-07-18, 09:48:04,VALID,918.177,VALID,0,VALID,73.8557,VALID,685.582,VALID,24.1641,VALID,27,VALID,2.17188,
2014-07-18, 09:49:04,VALID,918.217,VALID,0,VALID,73.1238,VALID,365.3,VALID,24.1854,VALID,317,VALID,0.636328,
2014-07-18, 09:50:04,VALID,918.204,VALID,0,VALID,72.7503,VALID,703.525,VALID,24.244,VALID,17,VALID,1.75586,
2014-07-18, 09:51:04,VALID,918.16,VALID,0,VALID,72.5825,VALID,712.979,VALID,24.2617,VALID,1,VALID,0.994531,
2014-07-18, 09:52:04,VALID,918.139,VALID,0,VALID,73.5278,VALID,759.931,VALID,24.3416,VALID,11,VALID,1.37656,
2014-07-18, 09:53:04,VALID,918.145,VALID,0,VALID,71.8431,VALID,237.015,VALID,24.4178,VALID,14,VALID,1.60625,
2014-07-18, 09:54:04,VALID,918.182,VALID,0,VALID,72.087,VALID,253.776,VALID,24.3983,VALID,1,VALID,0.365625,
2014-07-18, 09:55:04,VALID,918.202,VALID,0,VALID,70.448,VALID,272.793,VALID,24.2812,VALID,334,VALID,1.80352,
2014-07-18, 09:56:04,VALID,918.18,VALID,0,VALID,72.9942,VALID,219.61,VALID,23.9689,VALID,20,VALID,0.714844,
2014-07-18, 09:57:04,VALID,918.233,VALID,0,VALID,74.0539,VALID,792.808,VALID,23.8908,VALID,351,VALID,0.955469,
2014-07-18, 09:58:04,VALID,918.23,VALID,0,VALID,73.7032,VALID,288.802,VALID,23.9493,VALID,21,VALID,0.802344,
2014-07-18, 09:59:04,VALID,918.235,VALID,0,VALID,73.9624,VALID,229.602,VALID,24.0292,VALID,344,VALID,0.8625,
2014-07-18, 10:00:04,VALID,918.219,VALID,0,VALID,73.3068,VALID,675.053,VALID,23.9884,VALID,29,VALID,2.08555,
2014-07-18, 10:01:04,VALID,918.2,VALID,0,VALID,73.1848,VALID,311.042,VALID,23.9512,VALID,15,VALID,1.68984,
2014-07-18, 10:02:04,VALID,918.194,VALID,0,VALID,75.7081,VALID,775.188,VALID,23.953,VALID,25,VALID,1.77969,
2014-07-18, 10:03:04,VALID,918.204,VALID,0,VALID,74.2521,VALID,191.997,VALID,24.0878,VALID,20,VALID,1.89375,
2014-07-18, 10:04:04,VALID,918.198,VALID,0,VALID,72.8189,VALID,198.336,VALID,24.1287,VALID,37,VALID,1.96914,
2014-07-18, 10:05:04,VALID,918.205,VALID,0,VALID,73.0857,VALID,253.239,VALID,24.0878,VALID,351,VALID,0.596484,
2014-07-18, 10:06:04,VALID,918.165,VALID,0,VALID,73.4897,VALID,281.926,VALID,23.9512,VALID,12,VALID,1.64258,
2014-07-18, 10:07:04,VALID,918.184,VALID,0,VALID,74.3588,VALID,304.381,VALID,23.756,VALID,340,VALID,0.6375,
2014-07-18, 10:08:04,VALID,918.133,VALID,0,VALID,74.6942,VALID,296.323,VALID,23.6779,VALID,308,VALID,0.689844,
2014-07-18, 10:09:04,VALID,918.11,VALID,0,VALID,75.0906,VALID,453.402,VALID,23.7169,VALID,13,VALID,1.98359,
2014-07-18, 10:10:04,VALID,918.104,VALID,0,VALID,74.2749,VALID,191.138,VALID,23.756,VALID,47,VALID,0.786328,
2014-07-18, 10:11:04,VALID,918.086,VALID,0,VALID,74.7171,VALID,178.567,VALID,23.834,VALID,313,VALID,0.933984,
2014-07-18, 10:12:04,VALID,918.121,VALID,0,VALID,74.8238,VALID,216.386,VALID,23.834,VALID,346,VALID,1.00625,
2014-07-18, 10:13:04,VALID,918.133,VALID,0,VALID,74.1301,VALID,212.626,VALID,23.7755,VALID,104,VALID,0.772266,
2014-07-18, 10:14:04,VALID,918.134,VALID,0,VALID,75.7691,VALID,417.946,VALID,23.756,VALID,7,VALID,1.21953,
2014-07-18, 10:15:04,VALID,918.105,VALID,0,VALID,75.3651,VALID,760.791,VALID,23.7169,VALID,270,VALID,0.848437,
2014-07-18, 10:16:04,VALID,918.02,VALID,0,VALID,74.5265,VALID,740.27,VALID,23.6779,VALID,124,VALID,0.807031,
2014-07-18, 10:17:04,VALID,918.076,VALID,0,VALID,74.4198,VALID,460.17,VALID,23.756,VALID,12,VALID,1.80781,
2014-07-18, 10:18:04,VALID,918.086,VALID,0,VALID,75.2279,VALID,214.775,VALID,23.8731,VALID,355,VALID,1.53945,
2014-07-18, 10:19:04,VALID,918.115,VALID,0,VALID,74.5036,VALID,251.09,VALID,23.9316,VALID,14,VALID,1.36836,
2014-07-18, 10:20:04,VALID,918.081,VALID,0,VALID,73.5507,VALID,266.024,VALID,23.834,VALID,333,VALID,1.91016,
2014-07-18, 10:21:04,VALID,918.127,VALID,0,VALID,74.8238,VALID,822.892,VALID,23.6974,VALID,20,VALID,1.47812,
2014-07-18, 10:22:04,VALID,918.166,VALID,0,VALID,74.6104,VALID,216.924,VALID,23.756,VALID,73,VALID,0.599219,
2014-07-18, 10:23:04,VALID,918.17,VALID,0,VALID,74.4122,VALID,740.162,VALID,23.8926,VALID,154,VALID,0.626562,
2014-07-18, 10:24:04,VALID,918.167,VALID,0,VALID,74.0844,VALID,710.831,VALID,24.1854,VALID,60,VALID,1.46719,
2014-07-18, 10:25:04,VALID,918.168,VALID,0,VALID,71.0426,VALID,549.561,VALID,24.4197,VALID,8,VALID,1.72695,
2014-07-18, 10:26:04,VALID,918.134,VALID,0,VALID,72.5749,VALID,562.669,VALID,24.4392,VALID,40,VALID,1.75117,
2014-07-18, 10:27:04,VALID,918.123,VALID,0,VALID,70.5166,VALID,672.797,VALID,24.4587,VALID,11,VALID,2.86094,
2014-07-18, 10:28:04,VALID,918.151,VALID,0,VALID,71.1951,VALID,696.004,VALID,24.5778,VALID,29,VALID,2.14531,
2014-07-18, 10:29:04,VALID,918.186,VALID,0,VALID,70.0439,VALID,728.129,VALID,24.7126,VALID,3,VALID,0.973828,
2014-07-18, 10:30:04,VALID,918.161,VALID,0,VALID,69.739,VALID,408.061,VALID,24.8297,VALID,12,VALID,0.835156,
2014-07-18, 10:31:04,VALID,918.215,VALID,0,VALID,69.1215,VALID,226.486,VALID,24.8883,VALID,241,VALID,0.638281,
2014-07-18, 10:32:04,VALID,918.228,VALID,0,VALID,69.3121,VALID,253.454,VALID,24.8883,VALID,254,VALID,0.839063,
2014-07-18, 10:33:04,VALID,918.205,VALID,0,VALID,70.1431,VALID,848.355,VALID,24.9469,VALID,19,VALID,1.56445,
2014-07-18, 10:34:04,VALID,918.213,VALID,0,VALID,68.2601,VALID,891.976,VALID,24.9059,VALID,281,VALID,1.53672,
2014-07-18, 10:35:04,VALID,918.227,VALID,0,VALID,70.6081,VALID,283.322,VALID,24.9469,VALID,22,VALID,1.64961,
2014-07-18, 10:36:04,VALID,918.256,VALID,0,VALID,69.4722,VALID,692.351,VALID,25.064,VALID,5,VALID,1.30859,
2014-07-18, 10:37:04,VALID,918.269,VALID,0,VALID,69.2511,VALID,426.864,VALID,25.1422,VALID,53,VALID,1.06328,
2014-07-18, 10:38:04,VALID,918.285,VALID,0,VALID,68.2753,VALID,361.647,VALID,25.1617,VALID,302,VALID,1.58203,
2014-07-18, 10:39:04,VALID,918.27,VALID,0,VALID,67.452,VALID,361.217,VALID,24.8688,VALID,236,VALID,2.57852,
2014-07-18, 10:40:04,VALID,918.252,VALID,0,VALID,70.7301,VALID,535.594,VALID,24.4392,VALID,273,VALID,1.24258,
2014-07-18, 10:41:04,VALID,918.256,VALID,0,VALID,71.7287,VALID,392.16,VALID,24.4587,VALID,30,VALID,1.42539,
2014-07-18, 10:42:04,VALID,918.273,VALID,0,VALID,71.2789,VALID,933.878,VALID,24.5545,VALID,20,VALID,1.90391,
2014-07-18, 10:43:04,VALID,918.239,VALID,0,VALID,70.5395,VALID,372.928,VALID,24.5564,VALID,33,VALID,2.91094,
2014-07-18, 10:44:04,VALID,918.288,VALID,0,VALID,71.439,VALID,319.1,VALID,24.5387,VALID,25,VALID,1.78516,
2014-07-18, 10:45:04,VALID,918.335,VALID,0,VALID,70.326,VALID,315.555,VALID,24.5368,VALID,353,VALID,1.51328,
2014-07-18, 10:46:04,VALID,918.322,VALID,0,VALID,69.8457,VALID,273.975,VALID,24.535,VALID,312,VALID,0.297656,
2014-07-18, 10:47:04,VALID,918.327,VALID,0,VALID,69.8915,VALID,316.199,VALID,24.4764,VALID,46,VALID,1.36289,
2014-07-18, 10:48:04,VALID,918.322,VALID,0,VALID,70.7072,VALID,738.55,VALID,24.5155,VALID,55,VALID,0.704687,
2014-07-18, 10:49:04,VALID,918.336,VALID,0,VALID,70.1202,VALID,432.558,VALID,24.693,VALID,34,VALID,0.415625,
2014-07-18, 10:50:04,VALID,918.371,VALID,0,VALID,69.4951,VALID,970.838,VALID,24.9078,VALID,227,VALID,1.11563,
2014-07-18, 10:51:04,VALID,918.327,VALID,0,VALID,68.8776,VALID,364.333,VALID,25.0426,VALID,66,VALID,1.3375,
2014-07-18, 10:52:04,VALID,918.355,VALID,0,VALID,69.0224,VALID,342.63,VALID,25.1012,VALID,282,VALID,0.899609,